AIQ3005 VTBD-VTSP

Flight info

Callsign AIQ3005
Flight time 1h 12m
Altitude 36000
Route SABIS3C SABIS Y8 SAVSA SAVSA1C
Aircraft A320/M-SDE3FGHIRWY/LB1

Departure

Time 2026-05-06 02:54
Airport Don Mueang International Airport (VTBD)

Arrival

Time 2026-05-06 04:06
Airport Phuket International Airport (VTSP)
Time Latitude Longitude Altitude Speed Heading
2026-05-06 02:13 13.91820 100.60270 18 ft 0 kts 28°
2026-05-06 02:40 13.91801 100.60259 17 ft 4 kts 27°
2026-05-06 02:41 13.91777 100.60247 17 ft 2 kts 27°
2026-05-06 02:41 13.91755 100.60239 17 ft 4 kts 344°
2026-05-06 02:41 13.91738 100.60254 17 ft 4 kts 295°
2026-05-06 02:41 13.91727 100.60279 17 ft 4 kts 304°
2026-05-06 02:42 13.91712 100.60302 17 ft 4 kts 297°
2026-05-06 02:42 13.91700 100.60327 18 ft 4 kts 296°
2026-05-06 02:42 13.91688 100.60352 20 ft 4 kts 301°
2026-05-06 02:42 13.91673 100.60375 20 ft 4 kts 307°
2026-05-06 02:43 13.91655 100.60395 19 ft 4 kts 325°
2026-05-06 02:43 13.91634 100.60404 17 ft 3 kts 20°
2026-05-06 02:43 13.91629 100.60402 17 ft 0 kts 28°
2026-05-06 02:46 13.91630 100.60403 17 ft 1 kts 28°
2026-05-06 02:46 13.91640 100.60455 17 ft 16 kts 97°
2026-05-06 02:47 13.91707 100.60532 18 ft 15 kts 28°
2026-05-06 02:47 13.91795 100.60581 17 ft 14 kts 28°
2026-05-06 02:47 13.91877 100.60625 17 ft 13 kts 28°
2026-05-06 02:47 13.91950 100.60665 18 ft 11 kts 28°
2026-05-06 02:48 13.92014 100.60701 20 ft 10 kts 29°
2026-05-06 02:48 13.92071 100.60733 20 ft 9 kts 29°
2026-05-06 02:48 13.92130 100.60768 18 ft 13 kts 30°
2026-05-06 02:48 13.92231 100.60826 18 ft 20 kts 28°
2026-05-06 02:49 13.92361 100.60904 20 ft 23 kts 27°
2026-05-06 02:49 13.92507 100.60981 17 ft 21 kts 27°
2026-05-06 02:49 13.92603 100.61031 17 ft 10 kts 27°
2026-05-06 02:49 13.92651 100.61068 17 ft 8 kts 63°
2026-05-06 02:50 13.92636 100.61118 17 ft 7 kts 120°
2026-05-06 02:50 13.92612 100.61163 16 ft 7 kts 120°
2026-05-06 02:50 13.92587 100.61208 16 ft 7 kts 120°
2026-05-06 02:50 13.92566 100.61246 16 ft 5 kts 117°
2026-05-06 02:51 13.92552 100.61274 16 ft 3 kts 117°
2026-05-06 02:51 13.92544 100.61290 16 ft 2 kts 117°
2026-05-06 02:51 13.92540 100.61298 18 ft 4 kts 117°
2026-05-06 02:51 13.92504 100.61367 16 ft 13 kts 119°
2026-05-06 02:52 13.92465 100.61440 16 ft 0 kts 118°
2026-05-06 02:52 13.92463 100.61445 15 ft 5 kts 118°
2026-05-06 02:52 13.92422 100.61518 14 ft 9 kts 132°
2026-05-06 02:52 13.92375 100.61511 14 ft 6 kts 208°
2026-05-06 02:53 13.92372 100.61509 14 ft 0 kts 208°
2026-05-06 02:53 13.92149 100.61386 17 ft 74 kts 207°
2026-05-06 02:53 13.91508 100.61027 17 ft 133 kts 208°
2026-05-06 02:53 13.90550 100.60490 36 ft 178 kts 208°
2026-05-06 02:54 13.89449 100.59864 615 ft 182 kts 209°
2026-05-06 02:54 13.88333 100.59226 1251 ft 185 kts 208°
2026-05-06 02:54 13.87138 100.58565 1614 ft 205 kts 208°
2026-05-06 02:54 13.85974 100.57584 1894 ft 232 kts 232°
2026-05-06 02:55 13.85306 100.56005 2326 ft 254 kts 262°
2026-05-06 02:55 13.85483 100.54144 2890 ft 272 kts 291°
2026-05-06 02:55 13.86471 100.52478 3747 ft 275 kts 308°
2026-05-06 02:55 13.87629 100.50902 4672 ft 277 kts 307°
2026-05-06 02:56 13.88774 100.49298 5547 ft 279 kts 306°
2026-05-06 02:56 13.89923 100.47669 6366 ft 284 kts 307°
2026-05-06 02:56 13.91093 100.46008 7127 ft 289 kts 307°
2026-05-06 02:56 13.92227 100.44281 7749 ft 294 kts 301°
2026-05-06 02:57 13.93182 100.42420 7943 ft 294 kts 296°
2026-05-06 02:57 13.94021 100.40500 7998 ft 294 kts 294°
2026-05-06 02:57 13.94818 100.38566 8001 ft 294 kts 293°
2026-05-06 02:57 13.95619 100.36631 8001 ft 294 kts 294°
2026-05-06 02:58 13.96437 100.34707 8001 ft 293 kts 294°
2026-05-06 02:58 13.97086 100.32720 7999 ft 294 kts 281°
2026-05-06 02:58 13.97252 100.30604 8443 ft 299 kts 271°
2026-05-06 02:58 13.97312 100.28466 9353 ft 300 kts 272°
2026-05-06 02:59 13.97396 100.26311 10114 ft 304 kts 272°
2026-05-06 02:59 13.97490 100.24064 10457 ft 323 kts 272°
2026-05-06 02:59 13.97588 100.21726 11050 ft 330 kts 272°
2026-05-06 02:59 13.97684 100.19350 11735 ft 334 kts 272°
2026-05-06 03:00 13.97776 100.16947 12423 ft 338 kts 272°
2026-05-06 03:00 13.97865 100.14515 13111 ft 342 kts 272°
2026-05-06 03:00 13.97902 100.12058 13768 ft 345 kts 266°
2026-05-06 03:00 13.97433 100.09626 14357 ft 349 kts 251°
2026-05-06 03:01 13.96361 100.07377 14947 ft 352 kts 236°
2026-05-06 03:01 13.94776 100.05497 15520 ft 355 kts 221°
2026-05-06 03:01 13.92737 100.04060 16086 ft 358 kts 206°
2026-05-06 03:01 13.90374 100.03156 16653 ft 361 kts 193°
2026-05-06 03:02 13.87875 100.02850 16852 ft 374 kts 178°
2026-05-06 03:02 13.85281 100.03243 17248 ft 380 kts 163°
2026-05-06 03:02 13.82907 100.04002 17712 ft 384 kts 162°
2026-05-06 03:02 13.80340 100.04818 18222 ft 388 kts 162°
2026-05-06 03:03 13.77749 100.05627 18678 ft 391 kts 163°
2026-05-06 03:03 13.75135 100.06435 19139 ft 393 kts 163°
2026-05-06 03:03 13.72509 100.07248 19608 ft 396 kts 162°
2026-05-06 03:03 13.69863 100.08073 20058 ft 398 kts 162°
2026-05-06 03:04 13.67205 100.08903 20514 ft 400 kts 162°
2026-05-06 03:04 13.64531 100.09738 20962 ft 403 kts 162°
2026-05-06 03:04 13.61844 100.10577 21390 ft 405 kts 162°
2026-05-06 03:04 13.59141 100.11422 21831 ft 407 kts 162°
2026-05-06 03:05 13.56423 100.12274 22264 ft 410 kts 162°
2026-05-06 03:05 13.53687 100.13131 22699 ft 412 kts 162°
2026-05-06 03:05 13.50955 100.13986 23122 ft 414 kts 162°
2026-05-06 03:05 13.48193 100.14851 23523 ft 416 kts 162°
2026-05-06 03:06 13.45414 100.15722 23854 ft 419 kts 162°
2026-05-06 03:06 13.42621 100.16599 24193 ft 421 kts 162°
2026-05-06 03:06 13.39816 100.17477 24533 ft 423 kts 162°
2026-05-06 03:06 13.36995 100.18358 24872 ft 425 kts 162°
2026-05-06 03:07 13.34121 100.19072 25200 ft 427 kts 171°
2026-05-06 03:07 13.31147 100.19284 25539 ft 430 kts 180°
2026-05-06 03:07 13.28151 100.19253 25868 ft 432 kts 180°
2026-05-06 03:07 13.26158 100.19232 26084 ft 433 kts 180°
2026-05-06 03:08 13.23141 100.19202 26408 ft 435 kts 180°
2026-05-06 03:08 13.20118 100.19174 26711 ft 437 kts 180°
2026-05-06 03:08 13.17067 100.19149 27023 ft 439 kts 180°
2026-05-06 03:08 13.14035 100.19130 27328 ft 441 kts 180°
2026-05-06 03:09 13.10957 100.19112 27626 ft 443 kts 179°
2026-05-06 03:09 13.07868 100.19092 27932 ft 445 kts 180°
2026-05-06 03:09 13.04768 100.18915 28226 ft 448 kts 188°
2026-05-06 03:09 13.01731 100.18177 28515 ft 451 kts 198°
2026-05-06 03:10 12.98856 100.16874 28803 ft 454 kts 209°
2026-05-06 03:10 12.96249 100.15041 29090 ft 456 kts 220°
2026-05-06 03:10 12.93955 100.12784 29371 ft 459 kts 225°
2026-05-06 03:10 12.91712 100.10446 29645 ft 461 kts 225°
2026-05-06 03:11 12.89458 100.08092 29887 ft 464 kts 225°
2026-05-06 03:11 12.87198 100.05727 30126 ft 465 kts 225°
2026-05-06 03:11 12.84928 100.03355 30360 ft 467 kts 225°
2026-05-06 03:11 12.82649 100.00979 30595 ft 468 kts 225°
2026-05-06 03:12 12.80364 99.98601 30835 ft 469 kts 225°
2026-05-06 03:12 12.78069 99.96218 31075 ft 470 kts 225°
2026-05-06 03:12 12.75765 99.93829 31312 ft 472 kts 225°
2026-05-06 03:12 12.73491 99.91470 31582 ft 471 kts 225°
2026-05-06 03:13 12.71191 99.89083 31930 ft 470 kts 225°
2026-05-06 03:13 12.68901 99.86704 32272 ft 468 kts 225°
2026-05-06 03:13 12.66619 99.84333 32632 ft 467 kts 225°
2026-05-06 03:13 12.64344 99.81970 32963 ft 466 kts 225°
2026-05-06 03:14 12.61941 99.79759 33258 ft 465 kts 216°
2026-05-06 03:14 12.59197 99.78020 33580 ft 463 kts 206°
2026-05-06 03:14 12.56198 99.76801 33794 ft 466 kts 196°
2026-05-06 03:14 12.53021 99.76158 34021 ft 466 kts 185°
2026-05-06 03:15 12.49780 99.76057 34230 ft 467 kts 180°
2026-05-06 03:15 12.46527 99.76066 34490 ft 467 kts 180°
2026-05-06 03:15 12.43282 99.76069 34767 ft 466 kts 180°
2026-05-06 03:15 12.40047 99.76069 35047 ft 465 kts 180°
2026-05-06 03:16 12.36815 99.76070 35350 ft 463 kts 180°
2026-05-06 03:16 12.33601 99.76072 35648 ft 461 kts 180°
2026-05-06 03:16 12.30395 99.76073 35857 ft 461 kts 180°
2026-05-06 03:17 12.24038 99.76071 35911 ft 454 kts 180°
2026-05-06 03:17 12.17731 99.76071 35909 ft 453 kts 180°
2026-05-06 03:18 12.11428 99.76075 35915 ft 453 kts 180°
2026-05-06 03:18 12.05132 99.76083 35915 ft 452 kts 180°
2026-05-06 03:19 11.98835 99.76091 35912 ft 452 kts 180°
2026-05-06 03:19 11.92540 99.76097 35912 ft 453 kts 180°
2026-05-06 03:20 11.83091 99.76107 35917 ft 452 kts 179°
2026-05-06 03:20 11.76815 99.76117 35923 ft 450 kts 180°
2026-05-06 03:21 11.70549 99.76127 35922 ft 450 kts 179°
2026-05-06 03:21 11.64293 99.76134 35922 ft 449 kts 179°
2026-05-06 03:22 11.58044 99.76138 35916 ft 449 kts 180°
2026-05-06 03:22 11.51793 99.76145 35914 ft 449 kts 179°
2026-05-06 03:23 11.45546 99.76150 35913 ft 449 kts 179°
2026-05-06 03:23 11.39301 99.76160 35913 ft 449 kts 179°
2026-05-06 03:24 11.33061 99.76174 35908 ft 448 kts 180°
2026-05-06 03:24 11.26826 99.76174 35901 ft 448 kts 180°
2026-05-06 03:25 11.20631 99.76175 35901 ft 448 kts 179°
2026-05-06 03:25 11.14410 99.75996 35903 ft 448 kts 188°
2026-05-06 03:26 11.08394 99.74372 35905 ft 448 kts 197°
2026-05-06 03:26 11.02438 99.72496 35905 ft 448 kts 197°
2026-05-06 03:27 10.96484 99.70627 35900 ft 448 kts 197°
2026-05-06 03:27 10.90523 99.68765 35900 ft 448 kts 197°
2026-05-06 03:28 10.84564 99.66903 35894 ft 448 kts 197°
2026-05-06 03:28 10.78602 99.65038 35891 ft 448 kts 197°
2026-05-06 03:29 10.72644 99.63174 35891 ft 448 kts 196°
2026-05-06 03:29 10.66681 99.61316 35893 ft 448 kts 197°
2026-05-06 03:30 10.60718 99.59456 35893 ft 448 kts 196°
2026-05-06 03:30 10.54757 99.57594 35895 ft 448 kts 197°
2026-05-06 03:31 10.48796 99.55725 35891 ft 448 kts 197°
2026-05-06 03:31 10.42834 99.53860 35893 ft 448 kts 196°
2026-05-06 03:32 10.36869 99.51993 35878 ft 449 kts 196°
2026-05-06 03:32 10.30890 99.50134 35876 ft 450 kts 195°
2026-05-06 03:33 10.24905 99.48269 35879 ft 450 kts 196°
2026-05-06 03:33 10.18918 99.46397 35881 ft 450 kts 196°
2026-05-06 03:34 10.12925 99.44534 35887 ft 451 kts 197°
2026-05-06 03:34 10.06929 99.42669 35888 ft 451 kts 197°
2026-05-06 03:35 10.00927 99.40803 35879 ft 452 kts 196°
2026-05-06 03:35 9.94915 99.38937 35882 ft 452 kts 197°
2026-05-06 03:36 9.88896 99.37063 35882 ft 453 kts 196°
2026-05-06 03:36 9.82871 99.35186 35885 ft 453 kts 197°
2026-05-06 03:37 9.76837 99.33313 35660 ft 454 kts 196°
2026-05-06 03:37 9.73822 99.32378 35412 ft 452 kts 196°
2026-05-06 03:37 9.70864 99.31459 34923 ft 450 kts 196°
2026-05-06 03:38 9.67880 99.30530 34353 ft 448 kts 196°
2026-05-06 03:38 9.64898 99.29600 33778 ft 447 kts 195°
2026-05-06 03:38 9.61930 99.28674 33188 ft 445 kts 195°
2026-05-06 03:38 9.58976 99.27756 32644 ft 443 kts 195°
2026-05-06 03:39 9.56039 99.26846 32077 ft 441 kts 195°
2026-05-06 03:39 9.53116 99.25941 31534 ft 438 kts 195°
2026-05-06 03:39 9.50206 99.25037 30999 ft 436 kts 195°
2026-05-06 03:39 9.47314 99.24140 30456 ft 434 kts 195°
2026-05-06 03:40 9.44426 99.23241 29939 ft 432 kts 195°
2026-05-06 03:40 9.41558 99.22348 29368 ft 430 kts 195°
2026-05-06 03:40 9.38715 99.21468 28856 ft 425 kts 195°
2026-05-06 03:40 9.35893 99.20594 29824 ft 422 kts 197°
2026-05-06 03:41 9.33062 99.19717 28757 ft 431 kts 197°
2026-05-06 03:41 9.30160 99.18818 26366 ft 439 kts 195°
2026-05-06 03:41 9.27275 99.17923 26063 ft 428 kts 195°
2026-05-06 03:41 9.24467 99.17049 25834 ft 416 kts 195°
2026-05-06 03:42 9.21735 99.16199 25604 ft 405 kts 195°
2026-05-06 03:42 9.19071 99.15372 25376 ft 397 kts 195°
2026-05-06 03:42 9.16451 99.14561 25052 ft 391 kts 195°
2026-05-06 03:42 9.13895 99.13657 24613 ft 389 kts 204°
2026-05-06 03:43 9.11546 99.12301 24135 ft 389 kts 214°
2026-05-06 03:43 9.09429 99.10594 23658 ft 389 kts 218°
2026-05-06 03:43 9.07334 99.08866 23111 ft 388 kts 218°
2026-05-06 03:43 9.05243 99.07148 22609 ft 386 kts 218°
2026-05-06 03:44 9.03162 99.05442 22108 ft 384 kts 217°
2026-05-06 03:44 9.01090 99.03749 21628 ft 382 kts 217°
2026-05-06 03:44 8.99025 99.02063 21140 ft 381 kts 218°
2026-05-06 03:44 8.96969 99.00380 20659 ft 379 kts 218°
2026-05-06 03:45 8.94922 98.98702 20172 ft 378 kts 218°
2026-05-06 03:45 8.92879 98.97028 19696 ft 378 kts 218°
2026-05-06 03:45 8.90838 98.95360 19214 ft 377 kts 218°
2026-05-06 03:45 8.88799 98.93696 18754 ft 377 kts 218°
2026-05-06 03:46 8.86763 98.92030 18275 ft 376 kts 218°
2026-05-06 03:46 8.84731 98.90365 17761 ft 376 kts 218°
2026-05-06 03:46 8.82705 98.88706 17298 ft 373 kts 218°
2026-05-06 03:46 8.80693 98.87058 16833 ft 371 kts 218°
2026-05-06 03:47 8.78687 98.85420 16387 ft 369 kts 218°
2026-05-06 03:47 8.76693 98.83800 15941 ft 367 kts 218°
2026-05-06 03:47 8.74707 98.82189 15528 ft 364 kts 218°
2026-05-06 03:47 8.72736 98.80590 15076 ft 363 kts 218°
2026-05-06 03:48 8.70776 98.78998 14668 ft 361 kts 218°
2026-05-06 03:48 8.68827 98.77413 14289 ft 358 kts 218°
2026-05-06 03:48 8.66889 98.75835 13883 ft 356 kts 218°
2026-05-06 03:48 8.64971 98.74271 13509 ft 353 kts 218°
2026-05-06 03:49 8.63062 98.72715 13051 ft 352 kts 217°
2026-05-06 03:49 8.61161 98.71169 12614 ft 350 kts 217°
2026-05-06 03:49 8.59266 98.69630 12169 ft 349 kts 217°
2026-05-06 03:49 8.57398 98.68109 11967 ft 339 kts 217°
2026-05-06 03:50 8.55601 98.66645 11755 ft 323 kts 217°
2026-05-06 03:50 8.53876 98.65243 11228 ft 316 kts 217°
2026-05-06 03:50 8.52174 98.63863 10646 ft 312 kts 217°
2026-05-06 03:50 8.50581 98.62394 10037 ft 310 kts 228°
2026-05-06 03:51 8.49394 98.60598 9790 ft 306 kts 239°
2026-05-06 03:51 8.48339 98.58732 9688 ft 306 kts 239°
2026-05-06 03:51 8.47265 98.56872 9532 ft 306 kts 238°
2026-05-06 03:51 8.46190 98.55023 9387 ft 305 kts 238°
2026-05-06 03:52 8.45118 98.53180 9223 ft 304 kts 238°
2026-05-06 03:52 8.44049 98.51341 9092 ft 303 kts 238°
2026-05-06 03:52 8.42989 98.49507 8942 ft 302 kts 238°
2026-05-06 03:52 8.41949 98.47700 8798 ft 302 kts 238°
2026-05-06 03:53 8.40895 98.45869 8649 ft 301 kts 238°
2026-05-06 03:53 8.39844 98.44048 8495 ft 300 kts 238°
2026-05-06 03:53 8.38797 98.42232 8357 ft 299 kts 238°
2026-05-06 03:53 8.37753 98.40418 8210 ft 299 kts 238°
2026-05-06 03:54 8.36712 98.38607 8067 ft 298 kts 238°
2026-05-06 03:54 8.36008 98.37384 7970 ft 297 kts 238°
2026-05-06 03:54 8.34972 98.35582 7819 ft 297 kts 238°
2026-05-06 03:54 8.33949 98.33805 7681 ft 296 kts 238°
2026-05-06 03:55 8.32916 98.32011 7534 ft 296 kts 238°
2026-05-06 03:55 8.31868 98.30195 7393 ft 295 kts 238°
2026-05-06 03:55 8.30852 98.28435 7250 ft 294 kts 238°
2026-05-06 03:55 8.29827 98.26656 7106 ft 293 kts 238°
2026-05-06 03:56 8.28804 98.24884 6973 ft 292 kts 238°
2026-05-06 03:56 8.27786 98.23119 6823 ft 291 kts 238°
2026-05-06 03:56 8.26772 98.21356 6683 ft 290 kts 238°
2026-05-06 03:56 8.25759 98.19595 6538 ft 289 kts 238°
2026-05-06 03:57 8.24750 98.17843 6408 ft 288 kts 238°
2026-05-06 03:57 8.23741 98.16095 6256 ft 288 kts 238°
2026-05-06 03:57 8.22733 98.14351 6110 ft 288 kts 238°
2026-05-06 03:57 8.21725 98.12608 5967 ft 287 kts 238°
2026-05-06 03:58 8.20721 98.10870 5827 ft 286 kts 238°
2026-05-06 03:58 8.19864 98.09063 5686 ft 287 kts 251°
2026-05-06 03:58 8.19452 98.07094 5534 ft 287 kts 261°
2026-05-06 03:58 8.19157 98.05120 5385 ft 279 kts 261°
2026-05-06 03:59 8.18692 98.03276 5193 ft 266 kts 241°
2026-05-06 03:59 8.17532 98.01913 5070 ft 250 kts 211°
2026-05-06 03:59 8.15972 98.01279 4854 ft 239 kts 184°
2026-05-06 03:59 8.14346 98.01337 4755 ft 235 kts 172°
2026-05-06 04:00 8.12706 98.01502 4696 ft 237 kts 172°
2026-05-06 04:00 8.11071 98.01707 4596 ft 235 kts 162°
2026-05-06 04:00 8.09702 98.02479 4461 ft 222 kts 133°
2026-05-06 04:00 8.08915 98.03780 4346 ft 219 kts 105°
2026-05-06 04:01 8.08824 98.05306 4234 ft 221 kts 85°
2026-05-06 04:01 8.08976 98.06849 4117 ft 224 kts 85°
2026-05-06 04:01 8.09129 98.08439 3991 ft 229 kts 85°
2026-05-06 04:01 8.09284 98.10049 3696 ft 231 kts 85°
2026-05-06 04:02 8.09437 98.11659 3402 ft 230 kts 85°
2026-05-06 04:02 8.09588 98.13261 3114 ft 229 kts 85°
2026-05-06 04:02 8.09739 98.14853 2825 ft 227 kts 85°
2026-05-06 04:02 8.09889 98.16439 2549 ft 227 kts 85°
2026-05-06 04:03 8.10037 98.18015 2270 ft 224 kts 85°
2026-05-06 04:03 8.10183 98.19553 1986 ft 216 kts 84°
2026-05-06 04:03 8.10321 98.21028 1735 ft 208 kts 85°
2026-05-06 04:03 8.10452 98.22440 1529 ft 197 kts 85°
2026-05-06 04:04 8.10578 98.23774 1254 ft 187 kts 85°
2026-05-06 04:04 8.10700 98.25050 1019 ft 177 kts 84°
2026-05-06 04:04 8.10813 98.26233 847 ft 163 kts 85°
2026-05-06 04:04 8.10917 98.27318 598 ft 148 kts 85°
2026-05-06 04:05 8.11009 98.28308 431 ft 138 kts 84°
2026-05-06 04:05 8.11100 98.29258 277 ft 134 kts 85°
2026-05-06 04:05 8.11184 98.30185 86 ft 134 kts 85°
2026-05-06 04:05 8.11269 98.31091 30 ft 117 kts 85°
2026-05-06 04:06 8.11327 98.31735 47 ft 67 kts 84°
2026-05-06 04:06 8.11363 98.32091 63 ft 42 kts 84°
2026-05-06 04:06 8.11375 98.32317 69 ft 24 kts 100°
2026-05-06 04:06 8.11315 98.32431 73 ft 15 kts 140°
2026-05-06 04:07 8.11251 98.32387 73 ft 14 kts 261°
2026-05-06 04:07 8.11242 98.32284 72 ft 16 kts 265°
2026-05-06 04:07 8.11232 98.32167 62 ft 18 kts 265°
2026-05-06 04:07 8.11220 98.32037 60 ft 20 kts 265°
2026-05-06 04:08 8.11206 98.31896 55 ft 21 kts 264°
2026-05-06 04:08 8.11193 98.31746 48 ft 22 kts 265°
2026-05-06 04:08 8.11178 98.31583 41 ft 25 kts 263°
2026-05-06 04:08 8.11161 98.31398 35 ft 28 kts 265°
2026-05-06 04:09 8.11141 98.31193 31 ft 30 kts 265°
2026-05-06 04:09 8.11121 98.31007 30 ft 22 kts 261°
2026-05-06 04:09 8.11081 98.30852 29 ft 24 kts 266°
2026-05-06 04:09 8.11068 98.30698 28 ft 17 kts 264°
2026-05-06 04:10 8.11057 98.30576 28 ft 18 kts 266°
2026-05-06 04:10 8.11016 98.30483 27 ft 14 kts 204°
2026-05-06 04:10 8.10932 98.30465 27 ft 8 kts 175°
2026-05-06 04:10 8.10913 98.30512 27 ft 8 kts 102°
2026-05-06 04:11 8.10905 98.30545 27 ft 2 kts 105°
2026-05-06 04:11 8.10905 98.30547 27 ft 1 kts 104°
2026-05-06 04:11 8.10903 98.30553 28 ft 0 kts 104°